Location: Domont
(49.0278°N, 2.3264°E)
Time: 20:17:31
(UTC+00:00)

AO-109 - Pass Details

Date: 06 July 2022
Orbit: 470 x 506 km, 60.7° (Epoch: 09 August)

Event Time Altitude Azimuth Distance (km) Brightness Sun altitude
Exits shadow 02:08:47 16° 181° (S) 1,298 ? -12.4°
Maximum altitude 02:11:04 31° 126° (SE) 861 ? -12.2°
Drops below altitude 10° 02:14:25 10° 63° (ENE) 1,673 ? -11.9°
Sets 02:16:44 0° 53° (NE) 2,566 ? -11.7°
